TimeCDT,TemperatureF,Dew PointF,Humidity,Sea Level PressureIn,VisibilityMPH,Wind Direction,Wind SpeedMPH,Gust SpeedMPH,PrecipitationIn,Events,Conditions,WindDirDegrees,DateUTC
12:13 AM,62.6,-9999,N/A,30.02,-9999.0,East,4.6,-,N/A,,Unknown,100,2013-06-22 05:13:00
12:33 AM,62.6,60.8,94,30.00,-9999.0,East,8.1,-,N/A,,Overcast,100,2013-06-22 05:33:00
12:53 AM,62.6,59.0,88,29.97,10.0,ENE,6.9,-,N/A,,Mostly Cloudy,70,2013-06-22 05:53:00
1:13 AM,60.8,57.2,88,29.95,10.0,ENE,10.4,-,N/A,,Scattered Clouds,70,2013-06-22 06:13:00
1:33 AM,60.8,57.2,88,29.98,10.0,Calm,Calm,-,N/A,,Scattered Clouds,0,2013-06-22 06:33:00
1:53 AM,60.8,57.2,88,30.00,-9999.0,Calm,Calm,-,N/A,,Unknown,0,2013-06-22 06:53:00
2:12 AM,60.8,55.4,82,29.99,-9999.0,Calm,Calm,-,N/A,,Overcast,0,2013-06-22 07:12:00
2:33 AM,60.8,57.2,88,29.98,-9999.0,Calm,Calm,-,N/A,,Overcast,0,2013-06-22 07:33:00
2:53 AM,60.8,55.4,82,29.99,4.0,Calm,Calm,-,N/A,,Overcast,0,2013-06-22 07:53:00
3:12 AM,60.8,55.4,82,30.00,10.0,Calm,Calm,-,N/A,,Overcast,0,2013-06-22 08:12:00
3:33 AM,60.8,55.4,82,30.01,-9999.0,Calm,Calm,-,N/A,,Mostly Cloudy,0,2013-06-22 08:33:00
3:53 AM,60.8,55.4,82,30.02,10.0,Calm,Calm,-,N/A,,Mostly Cloudy,0,2013-06-22 08:53:00
4:13 AM,59.0,55.4,88,30.03,-9999.0,Calm,Calm,-,N/A,,Unknown,0,2013-06-22 09:13:00
4:33 AM,59.0,57.2,94,30.05,-9999.0,East,3.5,-,N/A,,Overcast,90,2013-06-22 09:33:00
4:52 AM,59.0,57.2,94,30.06,-9999.0,SE,3.5,-,0.01,Rain,Light Rain,130,2013-06-22 09:52:00
5:13 AM,59.0,57.2,94,30.08,10.0,South,5.8,-,N/A,Rain,Light Rain,170,2013-06-22 10:13:00
5:33 AM,57.2,55.4,94,30.09,10.0,South,5.8,-,N/A,Rain,Light Rain,170,2013-06-22 10:33:00
5:52 AM,57.2,55.4,94,30.10,7.0,Calm,Calm,-,0.01,Rain,Rain,0,2013-06-22 10:52:00
6:13 AM,57.2,55.4,94,30.11,-9999.0,SSE,5.8,-,0.01,Rain,Light Rain,150,2013-06-22 11:13:00
6:32 AM,57.2,55.4,94,30.10,-9999.0,SE,6.9,-,0.01,,Overcast,130,2013-06-22 11:32:00
6:53 AM,57.2,55.4,94,30.08,-9999.0,East,3.5,-,0.02,,Overcast,90,2013-06-22 11:53:00
7:13 AM,57.2,55.4,94,30.08,-9999.0,ESE,8.1,-,N/A,,Overcast,120,2013-06-22 12:13:00
7:33 AM,57.2,55.4,94,30.07,-9999.0,ESE,9.2,-,N/A,,Overcast,120,2013-06-22 12:33:00
7:53 AM,59.0,57.2,94,30.06,-9999.0,East,6.9,-,N/A,,Overcast,100,2013-06-22 12:53:00
8:12 AM,59.0,57.2,94,30.04,-9999.0,East,8.1,-,N/A,,Mostly Cloudy,100,2013-06-22 13:12:00
8:33 AM,60.8,57.2,88,30.03,-9999.0,East,6.9,-,N/A,,Unknown,90,2013-06-22 13:33:00
8:52 AM,62.6,57.2,82,30.02,-9999.0,East,9.2,-,N/A,,Mostly Cloudy,100,2013-06-22 13:52:00
9:13 AM,62.6,57.2,82,30.02,-9999.0,East,5.8,-,N/A,,Overcast,90,2013-06-22 14:13:00
9:33 AM,62.6,57.2,82,30.01,-9999.0,East,12.7,17.3,N/A,,Overcast,100,2013-06-22 14:33:00
9:53 AM,62.6,57.2,82,30.01,-9999.0,East,12.7,-,N/A,,Overcast,90,2013-06-22 14:53:00
10:13 AM,64.4,57.2,77,30.00,10.0,ESE,12.7,19.6,N/A,,Overcast,110,2013-06-22 15:13:00
10:32 AM,64.4,57.2,77,30.01,-9999.0,ESE,10.4,-,N/A,,Mostly Cloudy,110,2013-06-22 15:32:00
10:53 AM,62.6,57.2,82,30.01,-9999.0,ESE,9.2,17.3,N/A,,Overcast,120,2013-06-22 15:53:00
11:13 AM,62.6,57.2,82,30.02,-9999.0,ESE,10.4,-,N/A,,Overcast,120,2013-06-22 16:13:00
11:32 AM,62.6,57.2,82,30.03,-9999.0,ESE,8.1,-,N/A,,Overcast,110,2013-06-22 16:32:00
11:53 AM,62.6,57.2,82,30.03,-9999.0,ESE,6.9,-,N/A,,Overcast,110,2013-06-22 16:53:00
12:13 PM,62.6,59.0,88,30.04,-9999.0,SE,12.7,-,N/A,,Overcast,130,2013-06-22 17:13:00
12:33 PM,62.6,57.2,82,30.04,-9999.0,SSE,11.5,-,N/A,,Overcast,150,2013-06-22 17:33:00
12:53 PM,62.6,57.2,82,30.04,-9999.0,SSE,5.8,16.1,N/A,,Overcast,150,2013-06-22 17:53:00
1:13 PM,62.6,57.2,82,30.04,-9999.0,SSE,10.4,-,N/A,,Overcast,150,2013-06-22 18:13:00
1:33 PM,62.6,57.2,82,30.04,-9999.0,SSE,10.4,-,N/A,,Overcast,150,2013-06-22 18:33:00
1:53 PM,62.6,57.2,82,30.04,-9999.0,SSE,10.4,-,N/A,,Overcast,150,2013-06-22 18:53:00
2:13 PM,62.6,57.2,82,30.03,-9999.0,SE,10.4,-,N/A,,Overcast,130,2013-06-22 19:13:00
2:33 PM,62.6,57.2,82,30.02,-9999.0,ESE,9.2,-,N/A,,Overcast,120,2013-06-22 19:33:00
2:53 PM,62.6,57.2,82,30.01,-9999.0,East,8.1,-,N/A,,Overcast,90,2013-06-22 19:53:00
3:13 PM,62.6,57.2,82,30.01,-9999.0,ESE,8.1,-,N/A,,Overcast,120,2013-06-22 20:13:00
3:33 PM,62.6,57.2,82,30.01,-9999.0,East,6.9,-,N/A,,Overcast,100,2013-06-22 20:33:00
3:53 PM,62.6,57.2,82,30.00,-9999.0,East,4.6,-,N/A,,Overcast,80,2013-06-22 20:53:00
4:13 PM,62.6,57.2,82,30.00,-9999.0,ENE,3.5,-,N/A,,Overcast,70,2013-06-22 21:13:00
4:33 PM,62.6,57.2,82,30.00,-9999.0,East,5.8,-,N/A,,Overcast,90,2013-06-22 21:33:00
4:53 PM,62.6,57.2,82,30.01,-9999.0,ESE,3.5,-,N/A,,Overcast,110,2013-06-22 21:53:00
5:13 PM,62.6,57.2,82,30.01,-9999.0,East,5.8,-,N/A,,Overcast,100,2013-06-22 22:13:00
5:32 PM,62.6,57.2,82,30.01,-9999.0,ESE,5.8,-,N/A,,Overcast,110,2013-06-22 22:32:00
5:53 PM,62.6,57.2,82,30.00,-9999.0,ESE,4.6,-,N/A,,Overcast,120,2013-06-22 22:53:00
6:13 PM,62.6,57.2,82,30.00,-9999.0,SE,9.2,-,N/A,,Overcast,140,2013-06-22 23:13:00
6:33 PM,62.6,57.2,82,30.00,-9999.0,SSE,5.8,-,N/A,,Overcast,150,2013-06-22 23:33:00
6:53 PM,60.8,57.2,88,29.99,-9999.0,ESE,6.9,-,N/A,,Overcast,120,2013-06-22 23:53:00
7:13 PM,60.8,57.2,88,29.98,-9999.0,ESE,6.9,-,N/A,,Overcast,120,2013-06-23 00:13:00
7:32 PM,60.8,57.2,88,29.98,-9999.0,SE,6.9,-,N/A,,Overcast,130,2013-06-23 00:32:00
7:53 PM,60.8,57.2,88,29.97,-9999.0,ESE,8.1,-,N/A,,Overcast,120,2013-06-23 00:53:00
8:13 PM,60.8,57.2,88,29.97,10.0,East,10.4,-,N/A,,Overcast,100,2013-06-23 01:13:00
8:33 PM,59.0,57.2,94,29.97,-9999.0,ESE,5.8,-,N/A,,Overcast,120,2013-06-23 01:33:00
8:52 PM,59.0,57.2,94,29.96,10.0,Calm,Calm,-,N/A,,Light Drizzle,0,2013-06-23 01:52:00
9:13 PM,59.0,55.4,88,29.95,-9999.0,ESE,5.8,-,N/A,,Overcast,110,2013-06-23 02:13:00
9:32 PM,59.0,55.4,88,29.95,-9999.0,ESE,5.8,-,N/A,,Overcast,120,2013-06-23 02:32:00
9:53 PM,59.0,55.4,88,29.95,-9999.0,SE,4.6,-,N/A,,Overcast,130,2013-06-23 02:53:00
10:13 PM,59.0,55.4,88,29.95,-9999.0,SE,4.6,-,N/A,,Overcast,140,2013-06-23 03:13:00
10:32 PM,59.0,55.4,88,29.95,-9999.0,Calm,Calm,-,N/A,,Overcast,0,2013-06-23 03:32:00
10:53 PM,59.0,55.4,88,29.94,10.0,Calm,Calm,-,N/A,,Scattered Clouds,0,2013-06-23 03:53:00
11:13 PM,57.2,55.4,94,29.93,-9999.0,Calm,Calm,-,N/A,,Unknown,0,2013-06-23 04:13:00
11:33 PM,55.4,53.6,94,29.95,-9999.0,Calm,Calm,-,N/A,,Unknown,0,2013-06-23 04:33:00
11:53 PM,57.2,55.4,94,29.95,7.0,Calm,Calm,-,N/A,,Mostly Cloudy,0,2013-06-23 04:53:00